Back to catalog

STARLINK-4425

AliveCommunicationsSSO
NORAD 53208·PAYLOAD·🇺🇸 United States

Launched Jul 22, 2022 from Vandenberg Space Force Base

Loading…

Next Passes (next 24 hours)

TLE

FreshSource: CelesTrak SupGP

Epoch: Sep 14, 2026, 22:22 UTC

1 53208C 22084V   26257.93243056  .00684340  00000+0  17368-1 0  2575
2 53208  97.2815 312.7860 0001253  80.7969 154.8158 15.39374129    16

Track STARLINK-4425 in real time with AllMySat

Download on the App Store